Regional Weather Roundup
Issued by NWS Sterling, VA

Home | Current Version | Previous Version | Text Only | Print | Product List | Glossary Off
Versions: 1 2 3 4 5 6 7 8 9 10 11 12 13 14 15 16 17 18 19 20 21 22 23 24 25 26 27 28 29 30 31 32 33 34 35 36 37 38 39 40 41 42 43 44 45 46 47 48 49 50

000
ASUS41 KLWX 220410
RWRLWX

REGIONAL WEATHER ROUNDUP
NATIONAL WEATHER SERVICE BALTIMORE MD/WASHINGTON DC
1200 AM EDT TUE JUL 22 2014

Note: "FAIR" indicates few or no clouds below 12,000 feet
with no significant weather and/or obstructions to visibility.
 TC=TEMPERATURE CELSIUS

 * =Non NWS site. Station does not report precipitation (e.g. rain,
    snow, etc.), thunder, or fog.

DCZ001-MDZ009-015-VAZ040>042-051-053>054-220500-
WASHINGTON METRO
  /KDAA//-FT BELVOIR

CITY           SKY/WX    TMP DP  RH WIND       PRES   REMARKS
WASHINGTON NAT PTCLDY    76  67  73 S6        30.19R
DULLES         PTCLDY    72  67  84 S5        30.18S
ANDREWS AFB    PTCLDY    71  67  90 S6        30.19S
QUANTICO       CLOUDY    76  71  85 S9        30.18F
COLLEGE PARK*  PTCLDY    72  68  88 CALM      30.18S
LEESBURG*      CLOUDY    73  70  88 CALM      30.20R
MANASSAS*      PTCLDY    72  72 100 CALM      30.18S
GAITHERSBURG*  PTCLDY    70  64  83 SE6       30.23S

$$

MDZ006>007-011-014-220500-
BALTIMORE METRO

CITY           SKY/WX    TMP DP  RH WIND       PRES   REMARKS
BWI AIRPORT    PTCLDY    71  66  84 CALM      30.18R
MD SCIENCE CTR   N/A     77  66  68 MISG      30.18S
MARTIN STATE   PTCLDY    77  72  83 SE7       30.19S
ANNAPOLIS      PTCLDY    75  67  76 SW3       30.18S
FORT MEADE*    PTCLDY    66  64  94 CALM      30.21R

$$

MDZ012-015-019>023-220500-
MARYLAND EASTERN SHORE

CITY           SKY/WX    TMP DP  RH WIND       PRES   REMARKS
OCEAN CITY     MOCLDY    65  64  97 CALM      30.19S
SALISBURY      NOT AVBL
BAY BRIDGE AP*   N/A     75  70  83 SE6       30.18S
CAMBRIDGE*     PTCLDY    72  68  88 CALM      30.19R
EASTON*        PTCLDY    73  73 100 CALM      30.22S

$$

MDZ017>025-220500-
SOUTHERN MARYLAND

CITY           SKY/WX    TMP DP  RH WIND       PRES   REMARKS
PATUXENT RIVER CLOUDY    73  68  84 S7        30.18S
ST INIGOES     PTCLDY    73  66  78 SE5       30.18S
LEONARDTOWN*   PTCLDY    72  66  83 MISG      30.20S

$$

MDZ003>005-220500-
NORTH CENTRAL MARYLAND

CITY           SKY/WX    TMP DP  RH WIND       PRES   REMARKS
FREDERICK*     MOCLDY    70  70 100 CALM      30.20S
HAGERSTOWN APT CLEAR     73  66  78 SE5       30.18S
WESTMINSTER*   PTCLDY    72  70  94 S5        30.20S

$$

MDZ501>502-220500-
WESTERN MARYLAND

CITY           SKY/WX    TMP DP  RH WIND       PRES   REMARKS
OAKLAND*       CLOUDY    66 N/A N/A SE8       30.25S FOG
CUMBERLAND*    PTCLDY    73  72  94 CALM      30.21R

$$

VAZ025>031-220500-
SHENANDOAH VALLEY

CITY           SKY/WX    TMP DP  RH WIND       PRES   REMARKS
WINCHESTER*    PTCLDY    70  68  94 CALM      30.18F
STAUNTON*      CLOUDY    73  68  86 NE3       30.21F

$$

WVZ021-048>050-054>055-220500-
EASTERN WEST VIRGINIA PANHANDLE

CITY           SKY/WX    TMP DP  RH WIND       PRES   REMARKS
MARTINSBURG    PTCLDY    72  67  84 SE3       30.18S
PETERSBURG*    PTCLDY    70  64  81 CALM      30.18S

$$

VAZ036>039-050-220500-
CENTRAL FOOTHILLS

CITY           SKY/WX    TMP DP  RH WIND       PRES   REMARKS
CHARLOTTESVILL CLOUDY    74  71  91 CALM      30.18S
ORANGE*        CLOUDY    72  70  94 CALM      30.20S

$$

VAZ055>057-220500-
NORTH AND CENTRAL PIEDMONT

CITY           SKY/WX    TMP DP  RH WIND       PRES   REMARKS
FREDERICKSBRG* MOCLDY    73  71  91 SE3       30.17S
STAFFORD*      MOCLDY    72  72 100 CALM      30.22S

$$

NCZ024-NYZ072-PAZ021-071-VAZ022-071-220500-
OTHER REGIONAL OBSERVATIONS

CITY           SKY/WX    TMP DP  RH WIND       PRES   REMARKS
NEW YORK CITY  CLEAR     73  62  68 CALM      30.20S
PHILADELPHIA   CLEAR     73  59  61 SW6       30.18F
PITTSBURGH     CLEAR     75  68  78 CALM      30.14S
ROANOKE        MOCLDY    73  68  84 E5        30.21S
RICHMOND       MOCLDY    73  69  87 CALM      30.18S
RALEIGH        CLOUDY    73  70  90 CALM      30.17S

$$

ANZ530>537-220500-
MARINE OBSERVATIONS

STATION/POSITION TIME  TEMP    WIND        PRES
                       AIR SEA DIR/SP/G
                 (UTC) (F)     (DEG/KT/KT) (MB)
THOMAS PT LIGHT  0400   76 79  200/  8/  9 1022.5R
BALT KEY BRIDGE  0400   77     190/  6/  7 1021.6R
COVE POINT       0400   75     180/ 13/ 14 1022.0F
LEWISETTA        0400   74 80  180/  4/  5 1021.8F
SOLOMONS ISLAND  0400      81                N/A
PINEY POINT      0400          170/ 10/ 11   N/A

$$



USA.gov is the U.S. government's official web portal to all federal, state and local government web resources and services.